DLH7PR EDDP-EDDH

Flight info

Callsign DLH7PR
Flight time 0h 36m
Altitude 26000
Route PENEM1N PENEM Y233 ODLUN Z207 MAG M736 SOGMA/N0444F280 M748 ERNUD M726 BKD L619 BUMIL/N0418F240 M748 RARUP RARUP3S
Aircraft A321/M-SDE3FGHIRWY/LB1

Departure

Time 2026-04-25 21:44
Airport Leipzig/Halle Airport (EDDP)

Arrival

Time 2026-04-25 22:20
Airport Hamburg Helmut Schmidt Airport (EDDH)
Time Latitude Longitude Altitude Speed Heading
2026-04-25 20:50 51.41927 12.21877 426 ft 0 kts 15°
2026-04-25 21:23 51.41914 12.21871 423 ft 4 kts 15°
2026-04-25 21:23 51.41888 12.21860 423 ft 4 kts 15°
2026-04-25 21:23 51.41864 12.21849 420 ft 2 kts 15°
2026-04-25 21:24 51.41846 12.21837 432 ft 4 kts 63°
2026-04-25 21:24 51.41845 12.21804 428 ft 4 kts 105°
2026-04-25 21:24 51.41849 12.21780 429 ft 0 kts 105°
2026-04-25 21:29 51.41848 12.21786 428 ft 2 kts 105°
2026-04-25 21:30 51.41840 12.21832 430 ft 7 kts 105°
2026-04-25 21:30 51.41822 12.21937 422 ft 11 kts 105°
2026-04-25 21:30 51.41801 12.22061 428 ft 12 kts 105°
2026-04-25 21:30 51.41786 12.22148 433 ft 12 kts 105°
2026-04-25 21:31 51.41754 12.22331 434 ft 13 kts 105°
2026-04-25 21:31 51.41732 12.22462 435 ft 10 kts 105°
2026-04-25 21:31 51.41716 12.22557 438 ft 8 kts 104°
2026-04-25 21:31 51.41702 12.22636 447 ft 7 kts 107°
2026-04-25 21:32 51.41685 12.22731 450 ft 11 kts 106°
2026-04-25 21:32 51.41659 12.22892 455 ft 19 kts 104°
2026-04-25 21:32 51.41621 12.23118 463 ft 18 kts 105°
2026-04-25 21:32 51.41600 12.23301 466 ft 16 kts 90°
2026-04-25 21:33 51.41608 12.23475 464 ft 16 kts 85°
2026-04-25 21:33 51.41617 12.23646 470 ft 14 kts 85°
2026-04-25 21:33 51.41624 12.23796 472 ft 13 kts 86°
2026-04-25 21:33 51.41630 12.23975 474 ft 19 kts 87°
2026-04-25 21:34 51.41640 12.24193 479 ft 19 kts 86°
2026-04-25 21:34 51.41649 12.24405 472 ft 20 kts 85°
2026-04-25 21:34 51.41660 12.24620 479 ft 16 kts 85°
2026-04-25 21:34 51.41695 12.24778 475 ft 16 kts 39°
2026-04-25 21:35 51.41799 12.24827 482 ft 19 kts 13°
2026-04-25 21:35 51.41940 12.24882 490 ft 21 kts 13°
2026-04-25 21:35 51.42078 12.24933 487 ft 20 kts
2026-04-25 21:35 51.42216 12.24975 488 ft 21 kts 12°
2026-04-25 21:36 51.42370 12.25044 480 ft 25 kts 17°
2026-04-25 21:36 51.42551 12.25117 470 ft 28 kts 13°
2026-04-25 21:36 51.42744 12.25188 459 ft 17 kts 13°
2026-04-25 21:36 51.42870 12.25238 452 ft 21 kts 11°
2026-04-25 21:37 51.42975 12.25310 450 ft 15 kts 53°
2026-04-25 21:37 51.42988 12.25363 450 ft 15 kts 75°
2026-04-25 21:37 51.43004 12.25643 451 ft 16 kts 87°
2026-04-25 21:37 51.43011 12.25840 452 ft 20 kts 85°
2026-04-25 21:38 51.43023 12.26082 452 ft 25 kts 85°
2026-04-25 21:38 51.43038 12.26356 454 ft 24 kts 85°
2026-04-25 21:38 51.43048 12.26608 455 ft 17 kts 86°
2026-04-25 21:38 51.43092 12.26745 457 ft 13 kts 13°
2026-04-25 21:39 51.43151 12.26747 458 ft 13 kts 356°
2026-04-25 21:39 51.43204 12.26741 458 ft 0 kts 356°
2026-04-25 21:41 51.43208 12.26741 458 ft 3 kts 356°
2026-04-25 21:41 51.43266 12.26725 455 ft 14 kts 341°
2026-04-25 21:42 51.43343 12.26622 454 ft 15 kts 302°
2026-04-25 21:42 51.43355 12.26516 453 ft 0 kts 266°
2026-04-25 21:44 51.43340 12.26173 449 ft 68 kts 265°
2026-04-25 21:44 51.43290 12.25055 450 ft 131 kts 266°
2026-04-25 21:44 51.43072 12.21438 1170 ft 171 kts 270°
2026-04-25 21:45 51.43238 12.19589 1859 ft 170 kts 295°
2026-04-25 21:45 51.43671 12.18498 2062 ft 178 kts 315°
2026-04-25 21:45 51.45115 12.16871 2441 ft 202 kts 326°
2026-04-25 21:45 51.46303 12.15617 3038 ft 205 kts 325°
2026-04-25 21:46 51.47503 12.14339 3690 ft 205 kts 324°
2026-04-25 21:46 51.48675 12.13082 4283 ft 206 kts 323°
2026-04-25 21:46 51.49886 12.11779 4913 ft 208 kts 323°
2026-04-25 21:46 51.51093 12.10480 5471 ft 210 kts 323°
2026-04-25 21:47 51.52316 12.09185 6002 ft 213 kts 327°
2026-04-25 21:47 51.53731 12.08360 6515 ft 223 kts 344°
2026-04-25 21:47 51.55327 12.08277 6928 ft 234 kts 354°
2026-04-25 21:47 51.57006 12.08335 7074 ft 247 kts 353°
2026-04-25 21:48 51.58716 12.07998 7420 ft 249 kts 345°
2026-04-25 21:48 51.60428 12.07509 8116 ft 251 kts 344°
2026-04-25 21:48 51.62149 12.06998 8797 ft 253 kts 343°
2026-04-25 21:48 51.63883 12.06478 9477 ft 255 kts 343°
2026-04-25 21:49 51.65635 12.05955 10144 ft 257 kts 343°
2026-04-25 21:49 51.67434 12.05416 10487 ft 272 kts 343°
2026-04-25 21:49 51.69363 12.04831 10614 ft 292 kts 344°
2026-04-25 21:49 51.71424 12.04206 10738 ft 310 kts 344°
2026-04-25 21:50 51.73607 12.03553 10858 ft 327 kts 345°
2026-04-25 21:50 51.75903 12.02875 10985 ft 343 kts 345°
2026-04-25 21:50 51.78294 12.02169 11206 ft 354 kts 345°
2026-04-25 21:50 51.79905 12.01696 11491 ft 357 kts 345°
2026-04-25 21:51 51.83185 12.00698 12148 ft 359 kts 341°
2026-04-25 21:51 51.85573 11.99512 12622 ft 359 kts 338°
2026-04-25 21:51 51.87953 11.98239 13104 ft 362 kts 338°
2026-04-25 21:51 51.90342 11.96926 13571 ft 364 kts 338°
2026-04-25 21:52 51.92745 11.95594 14120 ft 365 kts 338°
2026-04-25 21:52 51.95139 11.94271 14678 ft 363 kts 338°
2026-04-25 21:52 51.97535 11.92956 15124 ft 364 kts 338°
2026-04-25 21:52 51.99940 11.91639 15565 ft 366 kts 338°
2026-04-25 21:53 52.02360 11.90312 15995 ft 368 kts 338°
2026-04-25 21:53 52.04792 11.88978 16417 ft 370 kts 338°
2026-04-25 21:53 52.07231 11.87639 16833 ft 372 kts 338°
2026-04-25 21:53 52.09688 11.86288 17236 ft 374 kts 338°
2026-04-25 21:54 52.12161 11.84928 17568 ft 377 kts 338°
2026-04-25 21:54 52.14656 11.83555 17940 ft 380 kts 338°
2026-04-25 21:54 52.17176 11.82165 18354 ft 383 kts 338°
2026-04-25 21:54 52.19695 11.80775 18795 ft 382 kts 338°
2026-04-25 21:55 52.22208 11.79387 19182 ft 382 kts 338°
2026-04-25 21:55 52.24733 11.77991 19526 ft 384 kts 338°
2026-04-25 21:55 52.27269 11.76587 19860 ft 386 kts 338°
2026-04-25 21:55 52.29820 11.75175 20064 ft 387 kts 338°
2026-04-25 21:56 52.32369 11.73760 20109 ft 387 kts 338°
2026-04-25 21:56 52.34056 11.72822 20112 ft 387 kts 338°
2026-04-25 21:56 52.37459 11.70921 20108 ft 386 kts 338°
2026-04-25 21:56 52.40003 11.69498 20108 ft 386 kts 338°
2026-04-25 21:57 52.42547 11.68078 20105 ft 386 kts 338°
2026-04-25 21:57 52.45003 11.66373 20112 ft 381 kts 327°
2026-04-25 21:57 52.47062 11.63678 19923 ft 380 kts 315°
2026-04-25 21:57 52.48912 11.60563 19687 ft 382 kts 315°
2026-04-25 21:58 52.50748 11.57416 19447 ft 381 kts 314°
2026-04-25 21:58 52.52571 11.54270 19214 ft 380 kts 314°
2026-04-25 21:58 52.54387 11.51132 18938 ft 380 kts 314°
2026-04-25 21:58 52.56210 11.47984 18697 ft 379 kts 314°
2026-04-25 21:59 52.58001 11.44897 18481 ft 378 kts 315°
2026-04-25 21:59 52.59837 11.41739 18219 ft 377 kts 315°
2026-04-25 21:59 52.61622 11.38671 17950 ft 375 kts 315°
2026-04-25 22:00 52.65239 11.32448 17418 ft 372 kts 315°
2026-04-25 22:00 52.67024 11.29369 17153 ft 371 kts 315°
2026-04-25 22:00 52.68798 11.26300 16896 ft 369 kts 315°
2026-04-25 22:00 52.70566 11.23238 16642 ft 368 kts 315°
2026-04-25 22:01 52.72326 11.20186 16426 ft 367 kts 315°
2026-04-25 22:01 52.74076 11.17153 16175 ft 363 kts 315°
2026-04-25 22:01 52.75811 11.14141 15922 ft 361 kts 315°
2026-04-25 22:01 52.76951 11.12156 15724 ft 360 kts 315°
2026-04-25 22:02 52.79260 11.08126 15390 ft 361 kts 315°
2026-04-25 22:02 52.80985 11.05111 15144 ft 361 kts 315°
2026-04-25 22:02 52.82707 11.02102 14901 ft 360 kts 315°
2026-04-25 22:02 52.84424 10.99103 14654 ft 358 kts 315°
2026-04-25 22:03 52.86132 10.96110 14414 ft 357 kts 315°
2026-04-25 22:03 52.87837 10.93122 14177 ft 356 kts 315°
2026-04-25 22:03 52.89536 10.90140 13959 ft 355 kts 315°
2026-04-25 22:03 52.91229 10.87160 13690 ft 354 kts 315°
2026-04-25 22:04 52.92914 10.84192 13419 ft 353 kts 315°
2026-04-25 22:04 52.94594 10.81230 13159 ft 352 kts 315°
2026-04-25 22:04 52.96267 10.78277 12900 ft 351 kts 315°
2026-04-25 22:04 52.97934 10.75331 12639 ft 348 kts 315°
2026-04-25 22:05 52.99547 10.72479 12374 ft 330 kts 315°
2026-04-25 22:05 53.01056 10.69810 12171 ft 302 kts 315°
2026-04-25 22:05 53.02428 10.67378 12033 ft 275 kts 315°
2026-04-25 22:05 53.03685 10.65147 11589 ft 256 kts 315°
2026-04-25 22:06 53.04864 10.63051 11192 ft 240 kts 315°
2026-04-25 22:06 53.05979 10.61068 11083 ft 229 kts 315°
2026-04-25 22:06 53.07042 10.59179 10952 ft 219 kts 315°
2026-04-25 22:06 53.08059 10.57371 10791 ft 210 kts 315°
2026-04-25 22:07 53.09050 10.55606 10548 ft 208 kts 314°
2026-04-25 22:07 53.09704 10.54444 10393 ft 207 kts 314°
2026-04-25 22:07 53.11016 10.52105 10080 ft 206 kts 314°
2026-04-25 22:07 53.11989 10.50367 9983 ft 206 kts 314°
2026-04-25 22:08 53.12964 10.48625 9847 ft 206 kts 314°
2026-04-25 22:08 53.13937 10.46884 9709 ft 205 kts 314°
2026-04-25 22:08 53.14909 10.45145 9588 ft 205 kts 314°
2026-04-25 22:08 53.15880 10.43406 9451 ft 205 kts 314°
2026-04-25 22:09 53.16852 10.41665 9320 ft 205 kts 314°
2026-04-25 22:09 53.17820 10.39925 9187 ft 205 kts 314°
2026-04-25 22:09 53.18789 10.38184 9056 ft 205 kts 314°
2026-04-25 22:09 53.19837 10.36590 8924 ft 204 kts 324°
2026-04-25 22:10 53.21080 10.35436 8795 ft 205 kts 331°
2026-04-25 22:10 53.22354 10.34373 8665 ft 205 kts 331°
2026-04-25 22:10 53.23624 10.33301 8536 ft 203 kts 331°
2026-04-25 22:10 53.24840 10.32277 8410 ft 189 kts 331°
2026-04-25 22:11 53.25976 10.31319 8268 ft 173 kts 331°
2026-04-25 22:11 53.27038 10.30417 7910 ft 170 kts 331°
2026-04-25 22:11 53.28090 10.29520 7576 ft 169 kts 331°
2026-04-25 22:11 53.29151 10.28613 7257 ft 177 kts 331°
2026-04-25 22:12 53.30261 10.27665 6947 ft 180 kts 332°
2026-04-25 22:12 53.31378 10.26715 6618 ft 180 kts 332°
2026-04-25 22:12 53.32494 10.25764 6291 ft 182 kts 332°
2026-04-25 22:12 53.32869 10.25445 6264 ft 190 kts 332°
2026-04-25 22:13 53.34941 10.23678 6169 ft 203 kts 333°
2026-04-25 22:13 53.36205 10.22602 6087 ft 203 kts 333°
2026-04-25 22:13 53.37442 10.21549 5978 ft 193 kts 333°
2026-04-25 22:13 53.38584 10.20578 5835 ft 173 kts 333°
2026-04-25 22:14 53.39282 10.19984 5529 ft 168 kts 333°
2026-04-25 22:14 53.40326 10.19095 5063 ft 169 kts 334°
2026-04-25 22:14 53.41319 10.18247 4986 ft 148 kts 334°
2026-04-25 22:14 53.42208 10.17487 4983 ft 141 kts 334°
2026-04-25 22:15 53.43081 10.16743 4980 ft 140 kts 334°
2026-04-25 22:15 53.43947 10.16003 4981 ft 140 kts 334°
2026-04-25 22:15 53.44815 10.15259 4981 ft 144 kts 334°
2026-04-25 22:16 53.46801 10.13561 4989 ft 169 kts 334°
2026-04-25 22:16 53.47860 10.12657 4770 ft 172 kts 334°
2026-04-25 22:16 53.48921 10.11752 4404 ft 171 kts 334°
2026-04-25 22:16 53.49974 10.10855 4051 ft 169 kts 335°
2026-04-25 22:17 53.51033 10.09984 3430 ft 169 kts 336°
2026-04-25 22:17 53.52132 10.09142 2354 ft 178 kts 336°
2026-04-25 22:17 53.53210 10.08277 2136 ft 169 kts 332°
2026-04-25 22:17 53.54242 10.07345 2124 ft 169 kts 330°
2026-04-25 22:18 53.55231 10.06302 1701 ft 166 kts 327°
2026-04-25 22:18 53.56178 10.05370 1387 ft 148 kts 331°
2026-04-25 22:18 53.57048 10.04637 1287 ft 134 kts 332°
2026-04-25 22:18 53.57865 10.03981 1095 ft 126 kts 332°
2026-04-25 22:19 53.58667 10.03323 916 ft 129 kts 329°
2026-04-25 22:19 53.59462 10.02647 857 ft 131 kts 330°
2026-04-25 22:19 53.60278 10.01946 790 ft 132 kts 331°
2026-04-25 22:19 53.61101 10.01248 553 ft 135 kts 331°
2026-04-25 22:20 53.61944 10.00522 359 ft 135 kts 328°
2026-04-25 22:20 53.62769 9.99827 120 ft 133 kts 330°
2026-04-25 22:20 53.63578 9.99097 49 ft 125 kts 333°
2026-04-25 22:20 53.64166 9.98611 51 ft 42 kts 334°
2026-04-25 22:21 53.64331 9.98470 50 ft 19 kts 334°
2026-04-25 22:21 53.64456 9.98389 49 ft 19 kts 347°
2026-04-25 22:21 53.64561 9.98371 50 ft 15 kts 359°
2026-04-25 22:21 53.64660 9.98387 51 ft 13 kts
2026-04-25 22:22 53.64695 9.98480 51 ft 9 kts 108°
2026-04-25 22:22 53.64653 9.98539 51 ft 9 kts 150°
2026-04-25 22:22 53.64589 9.98596 49 ft 13 kts 153°
2026-04-25 22:22 53.64501 9.98670 51 ft 14 kts 153°
2026-04-25 22:23 53.64419 9.98740 51 ft 12 kts 152°
2026-04-25 22:23 53.64351 9.98800 51 ft 11 kts 152°
2026-04-25 22:23 53.64280 9.98861 51 ft 12 kts 153°
2026-04-25 22:23 53.64199 9.98930 51 ft 14 kts 154°
2026-04-25 22:24 53.64108 9.99007 50 ft 14 kts 153°
2026-04-25 22:24 53.64027 9.99078 51 ft 12 kts 153°
2026-04-25 22:24 53.63957 9.99139 51 ft 11 kts 152°
2026-04-25 22:24 53.63889 9.99198 51 ft 11 kts 152°
2026-04-25 22:25 53.63825 9.99258 51 ft 11 kts 147°
2026-04-25 22:25 53.63768 9.99342 51 ft 10 kts 133°
2026-04-25 22:25 53.63730 9.99420 51 ft 8 kts 125°
2026-04-25 22:25 53.63701 9.99486 51 ft 6 kts 126°
2026-04-25 22:26 53.63663 9.99577 49 ft 12 kts 127°
2026-04-25 22:26 53.63615 9.99687 51 ft 11 kts 126°
2026-04-25 22:26 53.63576 9.99775 50 ft 8 kts 127°
2026-04-25 22:26 53.63548 9.99841 49 ft 6 kts 125°
2026-04-25 22:27 53.63523 9.99899 50 ft 6 kts 126°
2026-04-25 22:27 53.63500 9.99952 50 ft 5 kts 125°
2026-04-25 22:27 53.63480 9.99999 51 ft 5 kts 126°
2026-04-25 22:27 53.63461 10.00043 49 ft 4 kts 126°
2026-04-25 22:28 53.63437 10.00102 48 ft 10 kts 123°
2026-04-25 22:28 53.63396 10.00182 51 ft 8 kts 150°
2026-04-25 22:28 53.63359 10.00206 51 ft 5 kts 138°
2026-04-25 22:28 53.63354 10.00261 51 ft 6 kts 89°
2026-04-25 22:29 53.63356 10.00315 51 ft 4 kts 85°
2026-04-25 22:29 53.63357 10.00346 49 ft 2 kts 85°
2026-04-25 22:29 53.63357 10.00348 50 ft 0 kts 85°
2026-04-25 22:31 53.63358 10.00351 47 ft 0 kts 86°
2026-04-25 22:51 53.63111 10.00369 47 ft 0 kts 87°